RH
22 27 29 26 23 21 20 19 19 20 20 21 22 22 22 22 25 26 29 31 31 31 32 36 39 42 49 55 61 68 72 73 75 80 82 81 79 74 72 73 72 70 70
22 26 25 24 21 19 19 19 19 20 21 21 21 23 24 25 27 28 29 30 31 32 32 34 39 43 49 55 60 63 65 67 70 75 77 80 78 74 73 73 70 66 67
23 23 24 21 19 18 17 19 19 21 21 21 23 24 25 27 28 31 32 33 34 35 33 35 40 46 50 53 54 57 60 60 64 69 74 77 79 77 74 71 68 61 62
23 20 22 22 18 16 16 17 18 19 20 22 23 25 26 27 29 31 33 36 39 40 38 42 43 41 45 45 45 47 52 56 58 62 68 72 71 69 68 68 67 64 62
21 20 20 20 18 17 15 16 17 18 19 20 22 24 27 28 30 32 35 40 41 42 42 46 45 45 45 44 44 46 50 53 55 57 60 64 70 72 67 65 66 67 66
21 20 18 17 16 15 14 15 16 16 17 18 20 23 27 28 30 33 37 39 43 45 44 47 46 48 51 47 48 48 49 55 59 58 58 60 67 71 73 70 65 60 58
20 19 18 14 14 14 13 14 15 15 16 18 19 23 27 29 31 34 38 41 44 46 48 49 52 54 56 55 56 55 54 56 60 67 74 72 74 78 77 72 69 66 62
17 16 16 16 14 14 13 14 15 15 16 18 19 22 26 29 31 34 37 40 43 50 52 52 56 58 59 59 57 59 66 72 70 70 74 77 79 90 90 84 79 72 59
20 19 17 16 15 14 14 15 15 16 17 17 19 21 24 27 31 35 38 40 43 53 57 53 56 58 61 62 58 61 68 82 81 78 79 83 84 90 94 93 82 73 62
20 19 18 18 16 15 16 16 16 17 17 18 19 20 22 25 29 35 37 40 44 49 54 55 59 61 62 63 61 65 71 83 84 80 83 83 93 91 88 88 83 71 54
20 19 18 19 18 16 16 17 17 17 18 19 19 20 21 22 26 32 36 40 44 48 52 55 61 59 60 57 56 62 67 81 86 84 82 86 85 92 91 88 78 60 45
18 19 19 19 20 18 17 18 18 18 18 19 20 20 21 22 24 27 33 38 43 46 50 54 60 60 58 56 59 58 62 71 83 88 91 89 81 83 93 89 75 53 32
20 21 22 22 22 21 20 18 19 19 18 20 21 22 22 22 23 25 29 34 39 43 48 54 59 61 61 58 56 59 60 67 71 81 92 91 86 81 90 86 71 46 31
24 23 24 23 21 22 21 19 20 21 20 20 21 22 23 23 22 23 26 30 37 42 47 53 56 61 63 61 57 59 62 63 62 68 84 91 89 88 92 88 77 53 31
29 26 24 22 21 21 22 21 20 22 22 22 22 22 24 24 22 23 26 29 34 40 45 50 54 58 62 59 58 59 63 62 62 65 73 88 94 95 90 91 77 49 31
30 27 27 28 26 23 23 23 23 23 23 25 25 24 24 25 23 23 26 28 31 35 40 45 48 51 53 54 57 62 61 62 61 65 75 83 92 95 96 92 79 55 38
31 31 29 29 33 34 30 28 26 25 24 25 26 26 26 26 25 25 27 29 31 32 36 39 42 44 48 50 52 56 58 61 62 67 71 78 87 93 97 95 80 60 43
36 35 35 33 36 42 42 41 40 33 26 27 28 29 28 28 28 27 28 30 31 32 33 35 37 39 42 45 46 52 58 60 64 66 70 76 83 96 98 95 77 55 40
39 37 38 36 39 41 43 43 41 40 38 36 33 32 32 31 30 28 29 31 32 34 32 33 36 37 39 41 45 52 58 64 65 65 68 73 86 99 96 94 77 70 47
30 30 28 28 29 30 36 43 45 44 43 42 40 42 37 34 33 30 29 32 34 36 35 33 35 38 39 42 48 51 63 69 69 67 67 73 97 99 96 88 76 62 47
37 32 29 28 28 27 31 33 38 37 48 48 44 46 45 38 36 32 31 34 36 37 36 34 36 39 40 43 53 57 64 67 68 71 67 80 98 98 96 81 74 45 44
40 35 32 31 31 28 26 26 30 32 39 50 50 50 52 44 37 34 34 35 38 41 40 38 38 38 39 45 49 56 62 66 71 75 73 86 96 98 97 89 72 45 44
42 40 36 36 34 32 29 29 31 35 40 56 65 62 58 55 43 38 38 37 40 41 44 40 38 39 42 45 52 56 61 65 77 74 79 84 94 98 98 93 70 47 44
52 46 40 37 37 36 37 38 39 31 34 45 61 64 68 59 53 43 41 40 43 44 45 45 41 41 44 45 51 56 60 68 76 76 76 86 97 97 97 90 69 51 48
53 47 44 43 41 40 42 42 42 46 51 50 46 55 55 57 52 51 46 42 43 45 47 49 44 42 45 45 50 55 59 69 78 85 94 94 97 97 97 93 76 58 53
55 50 47 46 46 45 46 48 47 47 50 63 74 74 60 58 53 53 51 48 44 45 46 51 49 47 46 47 51 55 60 64 72 89 99 96 99 96 97 95 88 72 60